Regional Weather Roundup
Issued by NWS Wilmington, NC

Home | Current Version | Previous Version | Graphics & Text | Print | Product List | Glossary On
Versions: 1 2 3 4 5 6 7 8 9 10 11 12 13 14 15 16 17 18 19 20 21 22 23 24 25 26 27 28 29 30 31 32 33 34 35 36 37 38 39 40 41 42 43 44 45 46 47 48 49 50
000
ASUS42 KILM 180313
RWRILM
RWRILM
REGIONAL HOURLY WEATHER ROUNDUP
NATIONAL WEATHER SERVICE WILMINGTON NC
1000 PM EST THU JAN 17 2019

NOTE: "FAIR" INDICATES FEW OR NO CLOUDS BELOW 12,000 FEET WITH NO
SIGNIFICANT WEATHER AND/OR OBSTRUCTIONS TO VISIBILITY.

...............WFO WILMINGTON COUNTY WARNING AREA...............

......COASTAL NC AND SC COUNTIES......

CITY           SKY/WX    TMP DP  RH WIND       PRES   REMARKS
WILMINGTON     RAIN      47  43  86 CALM      30.20R FOG
N MYRTLE BEACH LGT RAIN  48  46  93 E3        30.19S
MYRTLE BEACH   CLOUDY    49  46  90 CALM      30.20F

......INLAND NC AND SC COUNTIES.......

CITY           SKY/WX    TMP DP  RH WIND       PRES   REMARKS
LUMBERTON      LGT RAIN  47  44  90 E5        30.17F
ELIZABETHTOWN  CLOUDY    47  46  96 S3        30.19F
WHITEVILLE     LGT RAIN  47  46  94 S3        30.18F
FLORENCE       FAIR      47  45  93 SE5       30.17F
DARLINGTON     CLOUDY    45  44  97 CALM      30.18S
KINGSTREE      FAIR      46  45  93 CALM      30.18S
HARTSVILLE     FAIR      43  43 100 CALM      30.16S
BENNETTSVILLE  CLOUDY    45  45 100 CALM      30.18R
CONWAY         MOCLDY    45  45 100 CALM      30.19F FOG
GEORGETOWN     CLOUDY    46  46 100 CALM      30.21F
MARION         MOCLDY    45  45 100 CALM      30.18S

....................REST OF NORTH CAROLINA......................

.........EASTERN NC.........

CITY           SKY/WX    TMP DP  RH WIND       PRES   REMARKS
CAPE HATTERAS  MOCLDY    47  42  83 NE3       30.17S
JACKSONVILLE   LGT RAIN  43  43 100 CALM      30.20R
MOREHEAD CITY  CLOUDY    44  39  82 E5        30.18S
KENANSVILLE    LGT RAIN  43  43 100 CALM      30.20S VSB 1
NEW BERN       CLOUDY    44  39  82 CALM      30.20R
ELIZABETH CITY CLOUDY    42  35  76 CALM      30.18F

.........CENTRAL NC.........

CITY           SKY/WX    TMP DP  RH WIND       PRES   REMARKS
RALEIGH DURHAM CLOUDY    44  39  82 S7        30.16F
ROCKY MOUNT    LGT RAIN  43  41  93 CALM      30.18S
ROANOKE RAPIDS NOT AVBL
FAYETTEVILLE   LGT RAIN  45  43  93 SE3       30.17F
HOFFMAN        CLOUDY    43  43  97 CALM      30.17S

.........WESTERN NC.........

CITY           SKY/WX    TMP DP  RH WIND       PRES   REMARKS
CHARLOTTE      MOCLDY    42  41  96 SW3       30.16F
GREENSBORO     CLOUDY    39  39 100 NW5       30.14S FOG
HICKORY        NOT AVBL
BOONE          NOT AVBL
ASHEVILLE      NOT AVBL

.....................REST OF SOUTH CAROLINA.....................

.........EASTERN SC.........

CITY           SKY/WX    TMP DP  RH WIND       PRES   REMARKS
CHARLESTON     LGT RAIN  48  45  89 S7        30.19F
BEAUFORT MCAS  LGT RAIN  52  50  93 S3        30.21F
HILTON HEAD    LGT RAIN  52  48  87 CALM      30.22S

.........CENTRAL SC.........

CITY           SKY/WX    TMP DP  RH WIND       PRES   REMARKS
COLUMBIA       FAIR      44  44 100 CALM      30.17S
ORANGEBURG     FAIR      47  42  83 S3        30.17F
SUMTER SHAW    FAIR      43  43 100 CALM        N/A  FOG

.........WESTERN SC.........

CITY           SKY/WX    TMP DP  RH WIND       PRES   REMARKS
GREENVILLE     NOT AVBL
ROCK HILL      CLOUDY    42  41  96 SW3       30.16F
ANDERSON       CLOUDY    42  41  96 CALM      30.16S FOG
CLEMSON        NOT AVBL
GREENWOOD      CLOUDY    41  41 100 CALM      30.18S FOG


...................COASTAL AND OFFSHORE REPORTS..................

................LOCAL PIERS AND NC RESERVE................


STATION/POSITION TIME  SKY/WX   TEMP    WIND        PRES    VSBY
                                AIR SEA DIR/SP/G
                 (UTC)          (F)     (DEG/KT/KT) (MB)    (MI)
JOHNY MRCER PIER 0242            49     320/  4/  5 1022.5R
NC RESRV MASNBRO NOT AVBL
OCEAN CREST PIER NOT AVBL
SPRINGMAID  PIER NOT AVBL


................COASTAL AND OFFSHORE BUOYS................


STATION/POSITION TIME  SKY/WX   TEMP    WIND        PRES    VSBY
                                AIR SEA DIR/SP/G
                 (UTC)          (F)     (DEG/KT/KT) (MB)    (MI)
DIMNDSHOAL 41025 NOT AVBL
CAPE LOOKOUT     0300                    60/  9/ 10 1021.7F
ONSLOW BAY 41036 NOT AVBL
ONSLOW BAY 41064 0208            52 60   80/ 10/ 14 1020.9F
ONSLOW BAY 41159 0300               59                N/A
WVE H/P(F/S)=  3/ 4

MASNBO INL 41110 0300               54                N/A
WVE H/P(F/S)=  2/10

WILM HARBR 41108 0300               54                N/A
WVE H/P(F/S)=  1/12

27SE WRITB 41037 0208            54 59   90/  8/ 12 1021.8F
FRYING PAN 41013 0250            57 67   40/  4/  6 1022.5R
WVE H/P(F/S)=  2/11 SWL H/P/D(F/S/D)=  2/ 90/11

SUNST NRSH 41024 0208            53 54   60/  6/  6 1022.2F
CAPRS NRSH 41029 0208            55 55  270/  2/  4 1023.7R
EDISTO     41004 0250               63  300/  4/  6 1023.6R
WVE H/P(F/S)=  2/11 SWL H/P/D(F/S/D)=  2/110/11



..........OFFSHORE BUOYS BEYOND 100 NM OFFSHORE...........
.....IN A TRIANGLE---HAT TO BERMUDA TO BAHAMAS TO HAT.....


STATION/POSITION TIME  SKY/WX   TEMP    WIND        PRES    VSBY
                                AIR SEA DIR/SP/G
                 (UTC)          (F)     (DEG/KT/KT) (MB)    (MI)
150E HAT   41001 NOT AVBL
W BERMUDA  41048 NOT AVBL
ATLANTIC S 41049 0250               75   50/ 16/ 21 1022.0R
WVE H/P(F/S)=  7/10 SWL H/P/D(F/S/D)=  5/ 20/10

E BAHAMAS  41046 0250                   110/ 10/ 14 1021.9R
WVE H/P(F/S)=  5/11 SWL H/P/D(F/S/D)=  5/ 30/11

NE BAHAMAS 41047 0250                   100/  6/ 10 1023.0F
WVE H/P(F/S)=  4/11 SWL H/P/D(F/S/D)=  3/ 40/11

120E CANVRL41010 0300            71     140/  8/ 12 1022.7

END



USA.gov is the U.S. government's official web portal to all federal, state and local government web resources and services.